Date String (YYYY-MM-DD hh:mm:ss) UTC,Instrument flags,absolute air pressure of the measurement (hPa),sample flow rate (lpm),inlet stack bypass flow (lpm),air temperature of the measurement (°C),ambient temperature measured by the external sensor (°C),aerosol sample conditioner tube jacket temperature (°C),OPC LED temperature (°C),internal box temperature (°C),relative humidity of the measurement (%),span deviation,mass concentration of particles derived from Lorenz-Mie calculation of OPC scattering (μg/m³),mass concentration of particles derived from Lorenz-Mie calculation of OPC scattering (μg/m³),mass concentration of particles derived from Lorenz-Mie calculation of OPC scattering (μg/m³)
DateTimeUTC,F1_M11,P_M11,Q1_M11,Q2_M11,T1_M11,T2_M11,T3_M11,T4_M11,T5_M11,U1_M11,ZSPAN_M11,X0_M11,X2_M11,X1_M11
2023-12-29 16:00:00,SystemResetWarning,0835.7,5.00,000.00,018.9,018.2,000.0,027.1,020.3,7.2,0000.0,0000.79,0000.43,0000.37
2023-12-29 16:01:00,SystemResetWarning,0835.7,5.00,000.00,018.9,018.2,000.0,027.1,020.3,7.6,0000.0,0000.80,0000.42,0000.36
2023-12-29 16:02:00,SystemResetWarning,0835.6,4.99,000.00,018.9,018.2,000.0,027.1,020.3,7.4,0000.0,0000.77,0000.42,0000.37
2023-12-29 16:03:00,SystemResetWarning,0835.7,5.00,000.00,018.9,018.2,000.0,027.1,020.4,6.9,0000.0,0000.74,0000.40,0000.37
2023-12-29 16:04:00,SystemResetWarning,0835.7,5.00,000.00,019.0,018.2,000.0,027.1,020.4,6.8,0000.0,0000.76,0000.41,0000.36
2023-12-29 16:05:00,SystemResetWarning,0835.7,5.00,000.00,019.0,018.3,000.0,027.2,020.4,6.9,0000.0,0001.18,0000.43,0000.36
2023-12-29 16:06:00,SystemResetWarning,0835.8,5.00,000.00,019.0,018.3,000.0,027.2,020.4,7.2,0000.0,0001.63,0000.45,0000.37
2023-12-29 16:07:00,SystemResetWarning,0835.8,5.01,000.00,019.0,018.3,000.0,027.2,020.4,7.3,0000.0,0002.00,0000.47,0000.36
2023-12-29 16:08:00,SystemResetWarning,0835.8,5.01,000.00,019.0,018.3,000.0,027.2,020.4,7.4,0000.0,0002.01,0000.48,0000.36
2023-12-29 16:09:00,SystemResetWarning,0835.8,5.00,000.00,019.0,018.3,000.0,027.2,020.5,7.7,0000.0,0002.16,0000.52,0000.36
2023-12-29 16:10:00,SystemResetWarning,0835.8,5.00,000.00,019.0,018.4,000.0,027.2,020.5,8.1,0000.0,0002.19,0000.53,0000.36
2023-12-29 16:11:00,SystemResetWarning,0835.9,5.00,000.00,019.1,018.4,000.0,027.2,020.5,8.4,0000.0,0002.25,0000.55,0000.36
2023-12-29 16:12:00,SystemResetWarning,0835.9,5.00,000.00,019.1,018.5,000.0,027.3,020.5,8.8,0000.0,0002.28,0000.56,0000.36
2023-12-29 16:13:00,SystemResetWarning,0835.9,5.00,000.00,019.1,018.5,000.0,027.3,020.6,8.8,0000.0,0002.27,0000.56,0000.36
2023-12-29 16:14:00,SystemResetWarning,0835.9,5.00,000.00,019.1,018.5,000.0,027.3,020.6,8.7,0000.0,0002.38,0000.58,0000.36
2023-12-29 16:15:00,SystemResetWarning,0835.9,5.00,000.00,019.2,018.6,000.0,027.3,020.6,8.0,0000.0,0003.06,0000.59,0000.37
2023-12-29 16:16:00,SystemResetWarning,0835.9,5.00,000.00,019.2,018.6,000.0,027.3,020.7,8.1,0000.0,0003.31,0000.58,0000.37
2023-12-29 16:17:00,SystemResetWarning,0836.0,4.99,000.00,019.2,018.6,000.0,027.3,020.7,8.8,0000.0,0002.95,0000.60,0000.37
2023-12-29 16:18:00,SystemResetWarning,0836.0,4.99,000.00,019.2,018.7,000.0,027.4,020.7,8.6,0000.0,0002.61,0000.59,0000.38
2023-12-29 16:19:00,SystemResetWarning,0835.9,5.00,000.00,019.2,018.7,000.0,027.4,020.7,8.7,0000.0,0002.59,0000.58,0000.39
2023-12-29 16:20:00,SystemResetWarning,0836.0,5.01,000.00,019.2,018.7,000.0,027.4,020.7,8.9,0000.0,0002.57,0000.57,0000.39
2023-12-29 16:21:00,SystemResetWarning,0836.0,5.01,000.00,019.3,018.7,000.0,027.4,020.8,8.6,0000.0,0002.57,0000.58,0000.40
2023-12-29 16:22:00,SystemResetWarning,0835.9,5.01,000.00,019.3,018.8,000.0,027.4,020.8,8.4,0000.0,0002.59,0000.59,0000.42
2023-12-29 16:23:00,SystemResetWarning,0835.9,5.00,000.00,019.3,018.8,000.0,027.4,020.8,8.6,0000.0,0002.64,0000.62,0000.45
2023-12-29 16:24:00,SystemResetWarning,0835.9,4.99,000.00,019.3,018.8,000.0,027.5,020.8,8.7,0000.0,0002.81,0000.67,0000.48
2023-12-29 16:25:00,SystemResetWarning,0835.9,5.00,000.00,019.4,018.9,000.0,027.5,020.9,8.7,0000.0,0003.38,0000.67,0000.49
2023-12-29 16:26:00,SystemResetWarning,0835.9,5.00,000.00,019.4,018.9,000.0,027.5,020.9,9.0,0000.0,0002.84,0000.69,0000.52
2023-12-29 16:27:00,SystemResetWarning,0836.0,5.00,000.00,019.4,018.9,000.0,027.5,020.9,9.0,0000.0,0002.04,0000.73,0000.56
2023-12-29 16:28:00,SystemResetWarning,0836.0,5.00,000.00,019.4,018.9,000.0,027.5,020.9,8.8,0000.0,0002.05,0000.74,0000.59
2023-12-29 16:29:00,SystemResetWarning,0836.0,5.01,000.00,019.5,018.9,000.0,027.6,020.9,8.9,0000.0,0002.13,0000.76,0000.61
2023-12-29 16:30:00,SystemResetWarning,0836.0,5.01,000.00,019.5,019.0,000.0,027.6,021.0,8.9,0000.0,0002.15,0000.78,0000.64
2023-12-29 16:31:00,SystemResetWarning,0836.0,5.00,000.00,019.5,019.0,000.0,027.6,021.0,8.9,0000.0,0002.06,0000.78,0000.65
2023-12-29 16:32:00,SystemResetWarning,0836.0,4.99,000.00,019.5,019.0,000.0,027.6,021.0,8.6,0000.0,0002.04,0000.78,0000.65
2023-12-29 16:33:00,SystemResetWarning,0836.0,4.99,000.00,019.5,019.1,000.0,027.6,021.1,8.8,0000.0,0001.98,0000.75,0000.64
2023-12-29 16:34:00,SystemResetWarning,0835.9,5.00,000.00,019.6,019.1,000.0,027.7,021.1,8.9,0000.0,0001.94,0000.74,0000.62
2023-12-29 16:35:00,SystemResetWarning,0836.0,5.01,000.00,019.6,019.1,000.0,027.7,021.1,8.6,0000.0,0001.79,0000.71,0000.61
2023-12-29 16:36:00,SystemResetWarning,0836.0,5.00,000.00,019.6,019.1,000.0,027.7,021.1,8.8,0000.0,0001.13,0000.73,0000.61
2023-12-29 16:37:00,SystemResetWarning,0836.0,5.00,000.00,019.6,019.2,000.0,027.7,021.1,8.4,0000.0,0001.06,0000.71,0000.59
2023-12-29 16:38:00,SystemResetWarning,0836.1,4.98,000.00,019.7,019.2,000.0,027.7,021.2,6.6,0000.0,0000.98,0000.66,0000.56
2023-12-29 16:39:00,SystemResetWarning,0836.1,4.99,000.00,019.7,019.2,000.0,027.8,021.2,6.6,0000.0,0000.91,0000.63,0000.54
2023-12-29 16:40:00,SystemResetWarning,0836.1,5.01,000.00,019.7,019.2,000.0,027.8,021.2,5.8,0000.0,0000.83,0000.62,0000.51
2023-12-29 16:41:00,SystemResetWarning,0836.1,5.00,000.00,019.7,019.2,000.0,027.8,021.2,6.0,0000.0,0000.92,0000.61,0000.49
2023-12-29 16:42:00,SystemResetWarning,0836.1,5.01,000.00,019.7,019.3,000.0,027.8,021.3,6.3,0000.0,0000.99,0000.60,0000.48
2023-12-29 16:43:00,SystemResetWarning,0836.1,5.01,000.00,019.8,019.3,000.0,027.9,021.3,8.0,0000.0,0001.00,0000.59,0000.46
2023-12-29 16:44:00,SystemResetWarning,0836.1,5.00,000.00,019.8,019.3,000.0,027.9,021.3,9.2,0000.0,0001.09,0000.62,0000.46
2023-12-29 16:45:00,SystemResetWarning,0836.1,4.99,000.00,019.8,019.3,000.0,027.9,021.3,8.2,0000.0,0001.46,0000.59,0000.45
2023-12-29 16:46:00,SystemResetWarning,0836.1,4.99,000.00,019.8,019.4,000.0,027.9,021.3,7.5,0000.0,0002.82,0000.58,0000.43
2023-12-29 16:47:00,SystemResetWarning,0836.1,4.99,000.00,019.9,019.4,000.0,028.0,021.4,9.3,0000.0,0002.75,0000.55,0000.42
2023-12-29 16:48:00,SystemResetWarning,0836.1,4.99,000.00,019.9,019.4,000.0,028.0,021.4,9.5,0000.0,0002.76,0000.54,0000.41
2023-12-29 16:49:00,SystemResetWarning,0836.1,5.00,000.00,019.9,019.4,000.0,028.0,021.4,8.4,0000.0,0002.84,0000.53,0000.39
2023-12-29 16:50:00,SystemResetWarning,0836.1,5.00,000.00,019.9,019.4,000.0,028.0,021.5,8.9,0000.0,0003.10,0000.52,0000.38
2023-12-29 16:51:00,SystemResetWarning,0836.1,5.01,000.00,020.0,019.5,000.0,028.0,021.5,9.5,0000.0,0003.08,0000.50,0000.36
2023-12-29 16:52:00,SystemResetWarning,0836.1,5.00,000.00,020.0,019.5,000.0,028.1,021.5,10.0,0000.0,0002.97,0000.48,0000.34
2023-12-29 16:53:00,SystemResetWarning,0836.1,5.00,000.00,020.0,019.5,000.0,028.1,021.5,9.8,0000.0,0002.88,0000.48,0000.34
2023-12-29 16:54:00,SystemResetWarning,0836.1,4.99,000.00,020.0,019.5,000.0,028.1,021.5,10.1,0000.0,0002.88,0000.48,0000.34
2023-12-29 16:55:00,SystemResetWarning,0836.1,5.00,000.00,020.0,019.6,000.0,028.1,021.5,10.1,0000.0,0002.82,0000.46,0000.33
2023-12-29 16:56:00,SystemResetWarning,0836.1,4.99,000.00,020.1,019.6,000.0,028.1,021.6,10.2,0000.0,0002.64,0000.46,0000.33
2023-12-29 16:57:00,SystemResetWarning,0836.1,5.01,000.00,020.1,019.6,000.0,028.2,021.6,10.4,0000.0,0001.02,0000.47,0000.33
2023-12-29 16:58:00,SystemResetWarning,0836.1,5.01,000.00,020.1,019.6,000.0,028.2,021.6,10.7,0000.0,0001.01,0000.46,0000.34
2023-12-29 16:59:00,SystemResetWarning,0836.1,5.00,000.00,020.1,019.7,000.0,028.2,021.7,10.1,0000.0,0001.09,0000.46,0000.34
